Time,TemperatureF,DewpointF,PressureIn,WindDirection,WindDirectionDegrees,WindSpeedMPH,WindSpeedGustMPH,Humidity,HourlyPrecipIn,Conditions,Clouds,dailyrainin,SoftwareType,DateUTC
2013-03-30 00:00:00,46.4,35.6,30.24,NE,45,0.0,0.0,66,0.00,,,0.00,meteohub,2013-03-30 04:00:00,
2013-03-30 00:01:00,46.4,35.6,30.24,NE,45,0.0,0.0,66,0.00,,,0.00,meteohub,2013-03-30 04:01:00,
2013-03-30 00:06:00,46.4,35.6,30.24,NE,45,0.0,0.0,66,0.00,,,0.00,meteohub,2013-03-30 04:06:00,
2013-03-30 00:11:00,47.3,36.1,30.23,SW,225,0.0,0.0,65,0.00,,,0.00,meteohub,2013-03-30 04:11:00,
2013-03-30 00:16:00,47.3,36.1,30.23,SW,225,0.0,0.0,65,0.00,,,0.00,meteohub,2013-03-30 04:16:00,
2013-03-30 00:21:00,47.1,35.2,30.23,SW,225,0.0,0.0,63,0.00,,,0.00,meteohub,2013-03-30 04:21:00,
2013-03-30 00:26:00,47.3,35.4,30.23,SW,225,0.0,0.0,63,0.00,,,0.00,meteohub,2013-03-30 04:26:00,
2013-03-30 00:32:00,47.5,36.0,30.23,SW,225,0.0,0.0,64,0.00,,,0.00,meteohub,2013-03-30 04:32:00,
2013-03-30 00:37:00,47.8,35.8,30.23,South,180,1.0,1.0,63,0.00,,,0.00,meteohub,2013-03-30 04:37:00,
2013-03-30 00:42:00,48.0,36.9,30.23,South,180,0.0,2.0,65,0.00,,,0.00,meteohub,2013-03-30 04:42:00,
2013-03-30 00:47:00,47.8,37.0,30.23,South,180,0.0,2.0,66,0.00,,,0.00,meteohub,2013-03-30 04:47:00,
2013-03-30 00:52:00,47.7,36.9,30.23,South,180,0.0,2.0,66,0.00,,,0.00,meteohub,2013-03-30 04:52:00,
2013-03-30 00:57:00,47.7,36.5,30.23,SE,135,0.0,0.0,65,0.00,,,0.00,meteohub,2013-03-30 04:57:00,
2013-03-30 01:02:00,47.7,36.5,30.23,SE,135,0.0,0.0,65,0.00,,,0.00,meteohub,2013-03-30 05:02:00,
2013-03-30 01:07:00,47.5,36.3,30.23,SE,135,0.0,0.0,65,0.00,,,0.00,meteohub,2013-03-30 05:07:00,
2013-03-30 01:12:00,47.3,36.1,30.23,SE,135,0.0,0.0,65,0.00,,,0.00,meteohub,2013-03-30 05:12:00,
2013-03-30 01:17:00,47.1,36.3,30.23,SE,135,0.0,0.0,66,0.00,,,0.00,meteohub,2013-03-30 05:17:00,
2013-03-30 01:22:00,46.9,36.5,30.23,SE,135,0.0,0.0,67,0.00,,,0.00,meteohub,2013-03-30 05:22:00,
2013-03-30 01:27:00,46.6,36.5,30.23,SE,135,0.0,0.0,68,0.00,,,0.00,meteohub,2013-03-30 05:27:00,
2013-03-30 01:32:00,46.4,36.0,30.24,SE,135,0.0,0.0,67,0.00,,,0.00,meteohub,2013-03-30 05:32:00,
2013-03-30 01:37:00,46.4,36.0,30.23,SE,135,0.0,0.0,67,0.00,,,0.00,meteohub,2013-03-30 05:37:00,
2013-03-30 01:44:00,46.2,36.3,30.24,East,90,0.0,0.0,68,0.00,,,0.00,meteohub,2013-03-30 05:44:00,
2013-03-30 01:49:00,45.9,36.3,30.24,ENE,68,0.0,0.0,69,0.00,,,0.00,meteohub,2013-03-30 05:49:00,
2013-03-30 01:54:00,45.9,35.6,30.24,North,0,0.0,0.0,67,0.00,,,0.00,meteohub,2013-03-30 05:54:00,
2013-03-30 02:00:00,46.0,36.1,30.23,South,180,0.0,0.0,68,0.00,,,0.00,meteohub,2013-03-30 06:00:00,
2013-03-30 02:05:00,46.0,36.1,30.23,South,180,0.0,0.0,68,0.00,,,0.00,meteohub,2013-03-30 06:05:00,
2013-03-30 02:10:00,46.0,37.2,30.23,SW,225,0.0,0.0,71,0.00,,,0.00,meteohub,2013-03-30 06:10:00,
2013-03-30 02:15:00,45.9,37.0,30.23,SW,225,0.0,0.0,71,0.00,,,0.00,meteohub,2013-03-30 06:15:00,
2013-03-30 02:20:00,45.5,37.4,30.23,South,180,0.0,0.0,73,0.00,,,0.00,meteohub,2013-03-30 06:20:00,
2013-03-30 02:25:00,45.5,37.4,30.23,South,180,0.0,0.0,73,0.00,,,0.00,meteohub,2013-03-30 06:25:00,
2013-03-30 02:30:00,45.3,37.6,30.22,West,270,0.0,0.0,74,0.00,,,0.00,meteohub,2013-03-30 06:30:00,
2013-03-30 02:35:00,45.1,37.4,30.22,West,270,0.0,0.0,74,0.00,,,0.00,meteohub,2013-03-30 06:35:00,
2013-03-30 02:40:00,45.1,37.4,30.23,West,270,0.0,0.0,74,0.00,,,0.00,meteohub,2013-03-30 06:40:00,
2013-03-30 02:45:00,44.8,37.4,30.23,West,270,0.0,0.0,75,0.00,,,0.00,meteohub,2013-03-30 06:45:00,
2013-03-30 02:50:00,44.6,37.6,30.23,West,270,0.0,0.0,76,0.00,,,0.00,meteohub,2013-03-30 06:50:00,
2013-03-30 02:55:00,44.2,37.6,30.22,West,270,0.0,0.0,77,0.00,,,0.00,meteohub,2013-03-30 06:55:00,
2013-03-30 03:00:00,44.1,37.4,30.22,West,270,0.0,0.0,77,0.00,,,0.00,meteohub,2013-03-30 07:00:00,
2013-03-30 03:06:00,43.9,37.2,30.23,West,270,0.0,2.0,77,0.00,,,0.00,meteohub,2013-03-30 07:06:00,
2013-03-30 03:11:00,43.7,37.0,30.23,West,270,0.0,2.0,77,0.00,,,0.00,meteohub,2013-03-30 07:11:00,
2013-03-30 03:16:00,43.7,37.2,30.23,West,270,0.0,0.0,78,0.00,,,0.00,meteohub,2013-03-30 07:16:00,
2013-03-30 03:22:00,43.5,37.0,30.22,West,270,0.0,0.0,78,0.00,,,0.00,meteohub,2013-03-30 07:22:00,
2013-03-30 03:27:00,43.3,37.2,30.23,West,270,0.0,0.0,79,0.00,,,0.00,meteohub,2013-03-30 07:27:00,
2013-03-30 03:32:00,43.2,37.0,30.22,West,270,0.0,0.0,79,0.00,,,0.00,meteohub,2013-03-30 07:32:00,
2013-03-30 03:37:00,42.8,36.7,30.22,West,270,0.0,0.0,79,0.00,,,0.00,meteohub,2013-03-30 07:37:00,
2013-03-30 03:42:00,42.6,36.9,30.22,West,270,0.0,0.0,80,0.00,,,0.00,meteohub,2013-03-30 07:42:00,
2013-03-30 03:47:00,42.3,36.5,30.22,West,270,0.0,0.0,80,0.00,,,0.00,meteohub,2013-03-30 07:47:00,
2013-03-30 03:52:00,42.1,36.7,30.22,West,270,0.0,0.0,81,0.00,,,0.00,meteohub,2013-03-30 07:52:00,
2013-03-30 03:57:00,41.7,36.9,30.23,West,270,0.0,0.0,83,0.00,,,0.00,meteohub,2013-03-30 07:57:00,
2013-03-30 04:04:00,41.7,36.9,30.23,West,270,0.0,0.0,83,0.00,,,0.00,meteohub,2013-03-30 08:04:00,
2013-03-30 04:09:00,41.5,36.7,30.23,SE,135,0.0,0.0,83,0.00,,,0.00,meteohub,2013-03-30 08:09:00,
2013-03-30 04:14:00,41.5,36.7,30.22,SE,135,0.0,0.0,83,0.00,,,0.00,meteohub,2013-03-30 08:14:00,
2013-03-30 04:19:00,41.7,37.2,30.23,SE,135,0.0,0.0,84,0.00,,,0.00,meteohub,2013-03-30 08:19:00,
2013-03-30 04:24:00,41.9,37.0,30.23,SE,135,0.0,0.0,83,0.00,,,0.00,meteohub,2013-03-30 08:24:00,
2013-03-30 04:29:00,42.1,37.2,30.22,SE,135,0.0,0.0,83,0.00,,,0.00,meteohub,2013-03-30 08:29:00,
2013-03-30 04:34:00,42.3,37.4,30.23,SE,135,0.0,2.0,83,0.00,,,0.00,meteohub,2013-03-30 08:34:00,
2013-03-30 04:39:00,42.3,37.4,30.23,SE,135,0.0,2.0,83,0.00,,,0.00,meteohub,2013-03-30 08:39:00,
2013-03-30 04:44:00,42.3,37.4,30.23,SE,135,0.0,0.0,83,0.00,,,0.00,meteohub,2013-03-30 08:44:00,
2013-03-30 04:50:00,42.4,37.6,30.23,SE,135,0.0,0.0,83,0.00,,,0.00,meteohub,2013-03-30 08:50:00,
2013-03-30 04:55:00,42.4,37.6,30.22,SE,135,0.0,0.0,83,0.00,,,0.00,meteohub,2013-03-30 08:55:00,
2013-03-30 05:00:00,42.4,37.6,30.23,SE,135,0.0,0.0,83,0.00,,,0.00,meteohub,2013-03-30 09:00:00,
2013-03-30 05:05:00,42.6,37.8,30.22,SE,135,0.0,0.0,83,0.00,,,0.00,meteohub,2013-03-30 09:05:00,
2013-03-30 05:10:00,42.8,37.8,30.22,SE,135,0.0,0.0,82,0.00,,,0.00,meteohub,2013-03-30 09:10:00,
2013-03-30 05:15:00,42.8,37.9,30.23,SW,225,0.0,0.0,83,0.00,,,0.00,meteohub,2013-03-30 09:15:00,
2013-03-30 05:20:00,43.0,38.5,30.23,SW,225,0.0,1.0,84,0.00,,,0.00,meteohub,2013-03-30 09:20:00,
2013-03-30 05:25:00,43.0,38.5,30.23,SW,225,0.0,1.0,84,0.00,,,0.00,meteohub,2013-03-30 09:25:00,
2013-03-30 05:30:00,42.8,38.3,30.24,SW,225,0.0,0.0,84,0.00,,,0.00,meteohub,2013-03-30 09:30:00,
2013-03-30 05:34:00,42.8,38.3,30.24,SW,225,0.0,0.0,84,0.00,,,0.00,meteohub,2013-03-30 09:34:00,
2013-03-30 05:39:00,42.6,38.5,30.23,SW,225,0.0,0.0,85,0.00,,,0.00,meteohub,2013-03-30 09:39:00,
2013-03-30 05:44:00,42.6,38.5,30.23,SW,225,0.0,0.0,85,0.00,,,0.00,meteohub,2013-03-30 09:44:00,
2013-03-30 05:49:00,42.4,37.9,30.23,SW,225,0.0,0.0,84,0.00,,,0.00,meteohub,2013-03-30 09:49:00,
2013-03-30 05:54:00,42.3,38.1,30.24,SW,225,0.0,0.0,85,0.00,,,0.00,meteohub,2013-03-30 09:54:00,
2013-03-30 06:00:00,42.1,37.9,30.24,SW,225,0.0,0.0,85,0.00,,,0.00,meteohub,2013-03-30 10:00:00,
2013-03-30 06:05:00,42.1,37.9,30.24,SW,225,0.0,0.0,85,0.00,,,0.00,meteohub,2013-03-30 10:05:00,
2013-03-30 06:10:00,41.7,37.6,30.24,SW,225,0.0,0.0,85,0.00,,,0.00,meteohub,2013-03-30 10:10:00,
2013-03-30 06:15:00,41.5,37.4,30.25,SW,225,0.0,0.0,85,0.00,,,0.00,meteohub,2013-03-30 10:15:00,
2013-03-30 06:20:00,41.2,37.0,30.24,SW,225,0.0,0.0,85,0.00,,,0.00,meteohub,2013-03-30 10:20:00,
2013-03-30 06:25:00,41.2,37.0,30.25,SW,225,0.0,0.0,85,0.00,,,0.00,meteohub,2013-03-30 10:25:00,
2013-03-30 06:30:00,41.0,36.9,30.25,SW,225,0.0,0.0,85,0.00,,,0.00,meteohub,2013-03-30 10:30:00,
2013-03-30 06:35:00,40.8,37.2,30.25,SW,225,0.0,0.0,87,0.00,,,0.00,meteohub,2013-03-30 10:35:00,
2013-03-30 06:41:00,40.8,37.2,30.25,SW,225,0.0,0.0,87,0.00,,,0.00,meteohub,2013-03-30 10:41:00,
2013-03-30 06:46:00,41.0,37.2,30.25,SW,225,0.0,0.0,86,0.00,,,0.00,meteohub,2013-03-30 10:46:00,
2013-03-30 06:51:00,41.2,37.6,30.25,SW,225,0.0,0.0,87,0.00,,,0.00,meteohub,2013-03-30 10:51:00,
2013-03-30 06:56:00,41.4,38.1,30.25,SW,225,0.0,0.0,88,0.00,,,0.00,meteohub,2013-03-30 10:56:00,
2013-03-30 07:01:00,41.5,38.3,30.26,SW,225,0.0,0.0,88,0.00,,,0.00,meteohub,2013-03-30 11:01:00,
2013-03-30 07:06:00,41.7,38.7,30.26,SW,225,0.0,0.0,89,0.00,,,0.00,meteohub,2013-03-30 11:06:00,
2013-03-30 07:12:00,41.9,38.8,30.27,SW,225,0.0,0.0,89,0.00,,,0.00,meteohub,2013-03-30 11:12:00,
2013-03-30 07:17:00,42.1,38.8,30.26,SW,225,0.0,0.0,88,0.00,,,0.00,meteohub,2013-03-30 11:17:00,
2013-03-30 07:22:00,42.3,39.0,30.27,SW,225,0.0,0.0,88,0.00,,,0.00,meteohub,2013-03-30 11:22:00,
2013-03-30 07:27:00,42.3,39.0,30.27,SW,225,0.0,0.0,88,0.00,,,0.00,meteohub,2013-03-30 11:27:00,
2013-03-30 07:32:00,42.3,39.0,30.27,SW,225,0.0,0.0,88,0.00,,,0.00,meteohub,2013-03-30 11:32:00,
2013-03-30 07:37:00,42.4,39.2,30.27,SW,225,0.0,0.0,88,0.00,,,0.00,meteohub,2013-03-30 11:37:00,
2013-03-30 07:42:00,42.6,39.4,30.27,SW,225,0.0,0.0,88,0.00,,,0.00,meteohub,2013-03-30 11:42:00,
2013-03-30 07:47:00,42.8,39.2,30.27,SW,225,0.0,0.0,87,0.00,,,0.00,meteohub,2013-03-30 11:47:00,
2013-03-30 07:52:00,43.2,39.2,30.27,SW,225,0.0,0.0,86,0.00,,,0.00,meteohub,2013-03-30 11:52:00,
2013-03-30 07:57:00,43.5,39.9,30.27,South,180,0.0,1.0,87,0.00,,,0.00,meteohub,2013-03-30 11:57:00,
2013-03-30 08:02:00,43.9,40.3,30.28,South,180,0.0,1.0,87,0.00,,,0.00,meteohub,2013-03-30 12:02:00,
2013-03-30 08:07:00,45.3,41.4,30.27,South,180,0.0,1.0,86,0.00,,,0.00,meteohub,2013-03-30 12:07:00,
2013-03-30 08:12:00,45.7,41.4,30.27,East,90,0.0,0.0,85,0.00,,,0.00,meteohub,2013-03-30 12:12:00,
2013-03-30 08:17:00,46.0,41.5,30.27,East,90,0.0,0.0,84,0.00,,,0.00,meteohub,2013-03-30 12:17:00,
2013-03-30 08:22:00,46.4,42.1,30.28,SW,225,0.0,0.0,85,0.00,,,0.00,meteohub,2013-03-30 12:22:00,
2013-03-30 08:27:00,46.8,41.9,30.28,South,180,0.0,2.0,83,0.00,,,0.00,meteohub,2013-03-30 12:27:00,
2013-03-30 08:32:00,47.3,42.1,30.28,South,180,0.0,2.0,82,0.00,,,0.00,meteohub,2013-03-30 12:32:00,
2013-03-30 08:37:00,47.8,42.6,30.28,SW,225,0.0,2.0,82,0.00,,,0.00,meteohub,2013-03-30 12:37:00,
2013-03-30 08:43:00,48.2,42.1,30.27,SW,225,0.0,1.0,79,0.00,,,0.00,meteohub,2013-03-30 12:43:00,
2013-03-30 08:48:00,48.6,41.7,30.28,North,0,1.0,1.0,77,0.00,,,0.00,meteohub,2013-03-30 12:48:00,
2013-03-30 08:55:00,48.9,41.4,30.27,North,0,1.0,1.0,75,0.00,,,0.00,meteohub,2013-03-30 12:55:00,
2013-03-30 09:00:00,50.5,41.9,30.27,SW,225,0.0,1.0,72,0.00,,,0.00,meteohub,2013-03-30 13:00:00,
2013-03-30 09:05:00,51.1,41.7,30.28,West,270,0.0,1.0,70,0.00,,,0.00,meteohub,2013-03-30 13:05:00,
2013-03-30 09:10:00,51.4,41.5,30.28,West,270,0.0,1.0,69,0.00,,,0.00,meteohub,2013-03-30 13:10:00,
2013-03-30 09:15:00,51.6,41.0,30.28,SW,225,0.0,0.0,67,0.00,,,0.00,meteohub,2013-03-30 13:15:00,
2013-03-30 09:20:00,51.8,41.2,30.28,East,90,0.0,0.0,67,0.00,,,0.00,meteohub,2013-03-30 13:20:00,
2013-03-30 09:25:00,52.2,41.5,30.28,SW,225,0.0,0.0,67,0.00,,,0.00,meteohub,2013-03-30 13:25:00,
2013-03-30 09:30:00,52.3,41.0,30.28,SW,225,0.0,0.0,65,0.00,,,0.00,meteohub,2013-03-30 13:30:00,
2013-03-30 09:35:00,52.5,40.6,30.27,NE,45,0.0,2.0,64,0.00,,,0.00,meteohub,2013-03-30 13:35:00,
2013-03-30 09:40:00,52.9,41.0,30.27,West,270,1.0,2.0,64,0.00,,,0.00,meteohub,2013-03-30 13:40:00,
2013-03-30 09:45:00,53.4,40.6,30.27,West,270,0.0,2.0,62,0.00,,,0.00,meteohub,2013-03-30 13:45:00,
2013-03-30 09:50:00,54.1,39.7,30.27,NNW,338,2.0,2.0,58,0.00,,,0.00,meteohub,2013-03-30 13:50:00,
2013-03-30 09:55:00,55.0,40.1,30.27,SE,135,1.0,2.0,57,0.00,,,0.00,meteohub,2013-03-30 13:55:00,
2013-03-30 10:00:00,55.4,39.0,30.27,North,0,2.0,2.0,54,0.00,,,0.00,meteohub,2013-03-30 14:00:00,
2013-03-30 10:06:00,55.6,38.3,30.27,West,270,2.0,2.0,52,0.00,,,0.00,meteohub,2013-03-30 14:06:00,
2013-03-30 10:11:00,56.3,37.9,30.26,North,0,1.0,2.0,50,0.00,,,0.00,meteohub,2013-03-30 14:11:00,
2013-03-30 10:16:00,57.0,38.1,30.26,NE,45,1.0,2.0,49,0.00,,,0.00,meteohub,2013-03-30 14:16:00,
2013-03-30 10:21:00,57.4,37.4,30.26,East,90,2.0,2.0,47,0.00,,,0.00,meteohub,2013-03-30 14:21:00,
2013-03-30 10:27:00,57.4,36.1,30.26,West,270,2.0,2.0,45,0.00,,,0.00,meteohub,2013-03-30 14:27:00,
2013-03-30 10:32:00,57.4,36.7,30.26,West,270,2.0,2.0,46,0.00,,,0.00,meteohub,2013-03-30 14:32:00,
2013-03-30 10:37:00,57.9,38.3,30.25,NW,315,2.0,2.0,48,0.00,,,0.00,meteohub,2013-03-30 14:37:00,
2013-03-30 10:42:00,58.5,38.3,30.25,West,270,2.0,2.0,47,0.00,,,0.00,meteohub,2013-03-30 14:42:00,
2013-03-30 10:47:00,58.6,37.9,30.25,NE,45,2.0,3.0,46,0.00,,,0.00,meteohub,2013-03-30 14:47:00,
2013-03-30 10:52:00,59.4,37.9,30.25,NE,45,2.0,3.0,45,0.00,,,0.00,meteohub,2013-03-30 14:52:00,
2013-03-30 10:57:00,59.5,37.6,30.25,NE,45,2.0,4.0,44,0.00,,,0.00,meteohub,2013-03-30 14:57:00,
2013-03-30 11:02:00,59.9,37.9,30.25,SW,225,2.0,4.0,44,0.00,,,0.00,meteohub,2013-03-30 15:02:00,
2013-03-30 11:07:00,60.8,34.3,30.25,NE,45,2.0,4.0,37,0.00,,,0.00,meteohub,2013-03-30 15:07:00,
2013-03-30 11:12:00,60.8,33.6,30.25,NE,45,2.0,2.0,36,0.00,,,0.00,meteohub,2013-03-30 15:12:00,
2013-03-30 11:17:00,61.0,33.1,30.25,SW,225,2.0,3.0,35,0.00,,,0.00,meteohub,2013-03-30 15:17:00,
2013-03-30 11:22:00,61.5,32.9,30.24,North,0,2.0,4.0,34,0.00,,,0.00,meteohub,2013-03-30 15:22:00,
2013-03-30 11:27:00,61.3,32.0,30.24,West,270,2.0,4.0,33,0.00,,,0.00,meteohub,2013-03-30 15:27:00,
2013-03-30 11:32:00,61.9,33.3,30.24,West,270,2.0,4.0,34,0.00,,,0.00,meteohub,2013-03-30 15:32:00,
2013-03-30 11:37:00,63.0,31.8,30.24,East,90,1.0,4.0,31,0.00,,,0.00,meteohub,2013-03-30 15:37:00,
2013-03-30 11:43:00,64.2,32.9,30.23,North,0,2.0,4.0,31,0.00,,,0.00,meteohub,2013-03-30 15:43:00,
2013-03-30 11:48:00,64.2,32.2,30.23,East,90,3.0,4.0,30,0.00,,,0.00,meteohub,2013-03-30 15:48:00,
2013-03-30 11:53:00,64.8,33.4,30.23,West,270,2.0,4.0,31,0.00,,,0.00,meteohub,2013-03-30 15:53:00,
2013-03-30 11:58:00,64.6,32.4,30.23,West,270,2.0,4.0,30,0.00,,,0.00,meteohub,2013-03-30 15:58:00,
2013-03-30 12:05:00,64.8,33.4,30.23,NW,315,3.0,4.0,31,0.00,,,0.00,meteohub,2013-03-30 16:05:00,
2013-03-30 12:10:00,67.6,36.0,30.22,North,0,3.0,3.0,31,0.00,,,0.00,meteohub,2013-03-30 16:10:00,
2013-03-30 12:15:00,68.7,35.2,30.22,NE,45,2.0,3.0,29,0.00,,,0.00,meteohub,2013-03-30 16:15:00,
2013-03-30 12:20:00,69.6,37.6,30.21,SW,225,4.0,4.0,31,0.00,,,0.00,meteohub,2013-03-30 16:20:00,
2013-03-30 12:25:00,69.4,39.0,30.21,NNE,23,3.0,4.0,33,0.00,,,0.00,meteohub,2013-03-30 16:25:00,
2013-03-30 12:31:00,68.7,36.9,30.21,East,90,2.0,4.0,31,0.00,,,0.00,meteohub,2013-03-30 16:31:00,
2013-03-30 12:36:00,68.4,35.8,30.20,NE,45,5.0,7.0,30,0.00,,,0.00,meteohub,2013-03-30 16:36:00,
2013-03-30 12:41:00,68.2,37.9,30.20,East,90,5.0,7.0,33,0.00,,,0.00,meteohub,2013-03-30 16:41:00,
2013-03-30 12:46:00,67.6,36.0,30.20,NW,315,3.0,7.0,31,0.00,,,0.00,meteohub,2013-03-30 16:46:00,
2013-03-30 12:51:00,68.4,34.9,30.20,North,0,2.0,5.0,29,0.00,,,0.00,meteohub,2013-03-30 16:51:00,
2013-03-30 12:56:00,68.2,36.3,30.19,West,270,3.0,5.0,31,0.00,,,0.00,meteohub,2013-03-30 16:56:00,
2013-03-30 13:01:00,68.5,37.6,30.19,NE,45,2.0,4.0,32,0.00,,,0.00,meteohub,2013-03-30 17:01:00,
2013-03-30 13:06:00,68.7,38.5,30.18,North,0,2.0,4.0,33,0.00,,,0.00,meteohub,2013-03-30 17:06:00,
2013-03-30 13:11:00,69.3,38.8,30.18,South,180,4.0,4.0,33,0.00,,,0.00,meteohub,2013-03-30 17:11:00,
2013-03-30 13:17:00,69.3,38.1,30.18,NE,45,3.0,4.0,32,0.00,,,0.00,meteohub,2013-03-30 17:17:00,
2013-03-30 13:22:00,68.7,36.9,30.17,North,0,3.0,4.0,31,0.00,,,0.00,meteohub,2013-03-30 17:22:00,
2013-03-30 13:27:00,69.1,38.8,30.17,North,0,7.0,7.0,33,0.00,,,0.00,meteohub,2013-03-30 17:27:00,
2013-03-30 13:32:00,68.7,38.5,30.17,North,0,2.0,7.0,33,0.00,,,0.00,meteohub,2013-03-30 17:32:00,
2013-03-30 13:37:00,68.2,37.9,30.17,West,270,2.0,7.0,33,0.00,,,0.00,meteohub,2013-03-30 17:37:00,
2013-03-30 13:42:00,67.3,37.9,30.17,NW,315,3.0,7.0,34,0.00,,,0.00,meteohub,2013-03-30 17:42:00,
2013-03-30 13:47:00,66.9,38.3,30.17,West,270,2.0,4.0,35,0.00,,,0.00,meteohub,2013-03-30 17:47:00,
2013-03-30 13:52:00,68.0,39.4,30.16,NE,45,3.0,4.0,35,0.00,,,0.00,meteohub,2013-03-30 17:52:00,
2013-03-30 13:57:00,68.0,38.7,30.15,NE,45,3.0,4.0,34,0.00,,,0.00,meteohub,2013-03-30 17:57:00,
2013-03-30 14:02:00,68.2,39.6,30.15,SW,225,2.0,4.0,35,0.00,,,0.00,meteohub,2013-03-30 18:02:00,
2013-03-30 14:07:00,68.5,39.7,30.16,NE,45,2.0,4.0,35,0.00,,,0.00,meteohub,2013-03-30 18:07:00,
2013-03-30 14:12:00,69.1,41.0,30.16,West,270,3.0,4.0,36,0.00,,,0.00,meteohub,2013-03-30 18:12:00,
2013-03-30 14:17:00,69.3,40.5,30.16,West,270,2.0,4.0,35,0.00,,,0.00,meteohub,2013-03-30 18:17:00,
2013-03-30 14:22:00,68.7,39.9,30.15,West,270,2.0,4.0,35,0.00,,,0.00,meteohub,2013-03-30 18:22:00,
2013-03-30 14:27:00,69.6,41.5,30.14,SW,225,2.0,4.0,36,0.00,,,0.00,meteohub,2013-03-30 18:27:00,
2013-03-30 14:32:00,69.4,41.4,30.14,North,0,2.0,4.0,36,0.00,,,0.00,meteohub,2013-03-30 18:32:00,
2013-03-30 14:37:00,69.3,41.2,30.14,SE,135,2.0,4.0,36,0.00,,,0.00,meteohub,2013-03-30 18:37:00,
2013-03-30 14:42:00,69.3,41.2,30.14,NE,45,3.0,4.0,36,0.00,,,0.00,meteohub,2013-03-30 18:42:00,
2013-03-30 14:48:00,68.0,40.1,30.14,NE,45,2.0,4.0,36,0.00,,,0.00,meteohub,2013-03-30 18:48:00,
2013-03-30 14:53:00,69.8,41.0,30.13,West,270,2.0,4.0,35,0.00,,,0.00,meteohub,2013-03-30 18:53:00,
2013-03-30 14:58:00,70.2,41.9,30.13,North,0,2.0,4.0,36,0.00,,,0.00,meteohub,2013-03-30 18:58:00,
2013-03-30 15:03:00,69.6,42.3,30.13,SW,225,5.0,5.0,37,0.00,,,0.00,meteohub,2013-03-30 19:03:00,
2013-03-30 15:08:00,69.4,43.3,30.12,SW,225,4.0,5.0,39,0.00,,,0.00,meteohub,2013-03-30 19:08:00,
2013-03-30 15:14:00,69.3,43.9,30.12,SW,225,0.0,5.0,40,0.00,,,0.00,meteohub,2013-03-30 19:14:00,
2013-03-30 15:19:00,69.8,43.0,30.12,West,270,3.0,5.0,38,0.00,,,0.00,meteohub,2013-03-30 19:19:00,
2013-03-30 15:24:00,70.2,43.3,30.12,NE,45,2.0,4.0,38,0.00,,,0.00,meteohub,2013-03-30 19:24:00,
2013-03-30 15:29:00,70.5,43.0,30.12,NE,45,1.0,3.0,37,0.00,,,0.00,meteohub,2013-03-30 19:29:00,
2013-03-30 15:34:00,69.6,43.5,30.12,NW,315,2.0,3.0,39,0.00,,,0.00,meteohub,2013-03-30 19:34:00,
2013-03-30 15:39:00,68.7,43.3,30.12,NE,45,1.0,3.0,40,0.00,,,0.00,meteohub,2013-03-30 19:39:00,
2013-03-30 15:44:00,68.9,43.5,30.11,NW,315,2.0,3.0,40,0.00,,,0.00,meteohub,2013-03-30 19:44:00,
2013-03-30 15:49:00,69.4,44.1,30.11,SW,225,1.0,3.0,40,0.00,,,0.00,meteohub,2013-03-30 19:49:00,
2013-03-30 15:54:00,68.9,43.0,30.11,West,270,3.0,4.0,39,0.00,,,0.00,meteohub,2013-03-30 19:54:00,
2013-03-30 15:59:00,68.9,44.8,30.11,South,180,2.0,4.0,42,0.00,,,0.00,meteohub,2013-03-30 19:59:00,
2013-03-30 16:04:00,68.7,45.3,30.11,NE,45,1.0,4.0,43,0.00,,,0.00,meteohub,2013-03-30 20:04:00,
2013-03-30 16:09:00,70.0,45.9,30.10,NW,315,3.0,4.0,42,0.00,,,0.00,meteohub,2013-03-30 20:09:00,
2013-03-30 16:14:00,70.0,45.9,30.10,SW,225,4.0,4.0,42,0.00,,,0.00,meteohub,2013-03-30 20:14:00,
2013-03-30 16:19:00,69.4,46.0,30.11,SW,225,4.0,4.0,43,0.00,,,0.00,meteohub,2013-03-30 20:19:00,
2013-03-30 16:25:00,70.0,45.9,30.10,East,90,3.0,4.0,42,0.00,,,0.00,meteohub,2013-03-30 20:25:00,
2013-03-30 16:30:00,69.6,46.2,30.10,SW,225,2.0,4.0,43,0.00,,,0.00,meteohub,2013-03-30 20:30:00,
2013-03-30 16:35:00,69.6,46.2,30.10,SW,225,2.0,4.0,43,0.00,,,0.00,meteohub,2013-03-30 20:35:00,
2013-03-30 16:40:00,70.2,46.0,30.10,West,270,2.0,4.0,42,0.00,,,0.00,meteohub,2013-03-30 20:40:00,
2013-03-30 16:45:00,71.2,46.9,30.09,NE,45,2.0,3.0,42,0.00,,,0.00,meteohub,2013-03-30 20:45:00,
2013-03-30 16:50:00,72.1,46.4,30.09,NE,45,1.0,3.0,40,0.00,,,0.00,meteohub,2013-03-30 20:50:00,
2013-03-30 16:55:00,73.2,46.8,30.09,SW,225,3.0,3.0,39,0.00,,,0.00,meteohub,2013-03-30 20:55:00,
2013-03-30 17:00:00,71.8,45.5,30.09,West,270,2.0,4.0,39,0.00,,,0.00,meteohub,2013-03-30 21:00:00,
2013-03-30 17:05:00,71.6,46.0,30.09,North,0,2.0,4.0,40,0.00,,,0.00,meteohub,2013-03-30 21:05:00,
2013-03-30 17:10:00,71.1,46.2,30.09,West,270,1.0,3.0,41,0.00,,,0.00,meteohub,2013-03-30 21:10:00,
2013-03-30 17:15:00,70.7,46.4,30.09,SW,225,2.0,2.0,42,0.00,,,0.00,meteohub,2013-03-30 21:15:00,
2013-03-30 17:20:00,70.2,46.0,30.09,NW,315,1.0,4.0,42,0.00,,,0.00,meteohub,2013-03-30 21:20:00,
2013-03-30 17:25:00,69.8,45.7,30.09,SW,225,2.0,4.0,42,0.00,,,0.00,meteohub,2013-03-30 21:25:00,
2013-03-30 17:30:00,70.0,45.9,30.09,South,180,2.0,4.0,42,0.00,,,0.00,meteohub,2013-03-30 21:30:00,
2013-03-30 17:35:00,69.6,46.2,30.09,West,270,2.0,3.0,43,0.00,,,0.00,meteohub,2013-03-30 21:35:00,
2013-03-30 17:40:00,69.4,46.6,30.09,West,270,3.0,3.0,44,0.00,,,0.00,meteohub,2013-03-30 21:40:00,
2013-03-30 17:45:00,69.4,46.6,30.09,East,90,3.0,3.0,44,0.00,,,0.00,meteohub,2013-03-30 21:45:00,
2013-03-30 17:50:00,69.1,46.2,30.09,West,270,1.0,3.0,44,0.00,,,0.00,meteohub,2013-03-30 21:50:00,
2013-03-30 17:55:00,69.6,47.3,30.09,SW,225,3.0,3.0,45,0.00,,,0.00,meteohub,2013-03-30 21:55:00,
2013-03-30 18:01:00,69.1,46.2,30.09,East,90,2.0,4.0,44,0.00,,,0.00,meteohub,2013-03-30 22:01:00,
2013-03-30 18:06:00,69.4,46.6,30.09,NE,45,2.0,4.0,44,0.00,,,0.00,meteohub,2013-03-30 22:06:00,
2013-03-30 18:11:00,70.0,46.4,30.09,North,0,2.0,4.0,43,0.00,,,0.00,meteohub,2013-03-30 22:11:00,
2013-03-30 18:16:00,69.4,46.6,30.09,East,90,2.0,4.0,44,0.00,,,0.00,meteohub,2013-03-30 22:16:00,
2013-03-30 18:22:00,68.5,45.7,30.09,West,270,0.0,3.0,44,0.00,,,0.00,meteohub,2013-03-30 22:22:00,
2013-03-30 18:27:00,67.6,46.0,30.09,East,90,0.0,2.0,46,0.00,,,0.00,meteohub,2013-03-30 22:27:00,
2013-03-30 18:32:00,66.9,46.6,30.09,North,0,1.0,2.0,48,0.00,,,0.00,meteohub,2013-03-30 22:32:00,
2013-03-30 18:37:00,65.8,46.8,30.10,West,270,1.0,4.0,50,0.00,,,0.00,meteohub,2013-03-30 22:37:00,
2013-03-30 18:42:00,65.3,46.2,30.10,SW,225,0.0,4.0,50,0.00,,,0.00,meteohub,2013-03-30 22:42:00,
2013-03-30 18:47:00,64.8,46.2,30.10,SW,225,1.0,3.0,51,0.00,,,0.00,meteohub,2013-03-30 22:47:00,
2013-03-30 18:52:00,64.4,45.9,30.10,SW,225,1.0,3.0,51,0.00,,,0.00,meteohub,2013-03-30 22:52:00,
2013-03-30 18:57:00,63.9,45.9,30.10,West,270,1.0,3.0,52,0.00,,,0.00,meteohub,2013-03-30 22:57:00,
2013-03-30 19:02:00,63.5,45.5,30.10,NE,45,0.0,2.0,52,0.00,,,0.00,meteohub,2013-03-30 23:02:00,
2013-03-30 19:07:00,63.1,45.7,30.10,East,90,0.0,2.0,53,0.00,,,0.00,meteohub,2013-03-30 23:07:00,
2013-03-30 19:12:00,62.8,45.3,30.10,East,90,1.0,2.0,53,0.00,,,0.00,meteohub,2013-03-30 23:12:00,
2013-03-30 19:17:00,62.8,45.3,30.10,North,0,0.0,2.0,53,0.00,,,0.00,meteohub,2013-03-30 23:17:00,
2013-03-30 19:22:00,62.1,45.7,30.11,North,0,0.0,2.0,55,0.00,,,0.00,meteohub,2013-03-30 23:22:00,
2013-03-30 19:27:00,61.7,45.3,30.11,North,0,0.0,1.0,55,0.00,,,0.00,meteohub,2013-03-30 23:27:00,
2013-03-30 19:32:00,61.5,45.7,30.11,North,0,0.0,0.0,56,0.00,,,0.00,meteohub,2013-03-30 23:32:00,
2013-03-30 19:38:00,61.0,45.1,30.11,NE,45,0.0,0.0,56,0.00,,,0.00,meteohub,2013-03-30 23:38:00,
2013-03-30 19:43:00,60.8,45.5,30.11,East,90,0.0,1.0,57,0.00,,,0.00,meteohub,2013-03-30 23:43:00,
2013-03-30 19:48:00,60.6,45.7,30.11,East,90,0.0,1.0,58,0.00,,,0.00,meteohub,2013-03-30 23:48:00,
2013-03-30 19:53:00,60.1,45.7,30.11,East,90,0.0,1.0,59,0.00,,,0.00,meteohub,2013-03-30 23:53:00,
2013-03-30 19:58:00,59.7,45.9,30.11,East,90,0.0,1.0,60,0.00,,,0.00,meteohub,2013-03-30 23:58:00,
2013-03-30 20:03:00,59.2,45.3,30.12,East,90,0.0,0.0,60,0.00,,,0.00,meteohub,2013-03-31 00:03:00,
2013-03-30 20:08:00,59.0,45.1,30.12,East,90,0.0,0.0,60,0.00,,,0.00,meteohub,2013-03-31 00:08:00,
2013-03-30 20:13:00,58.6,45.3,30.12,East,90,0.0,0.0,61,0.00,,,0.00,meteohub,2013-03-31 00:13:00,
2013-03-30 20:18:00,58.3,45.7,30.12,NE,45,0.0,0.0,63,0.00,,,0.00,meteohub,2013-03-31 00:18:00,
2013-03-30 20:23:00,58.1,45.5,30.12,NE,45,0.0,0.0,63,0.00,,,0.00,meteohub,2013-03-31 00:23:00,
2013-03-30 20:29:00,57.7,45.7,30.12,NE,45,0.0,0.0,64,0.00,,,0.00,meteohub,2013-03-31 00:29:00,
2013-03-30 20:34:00,57.6,45.5,30.12,NE,45,0.0,0.0,64,0.00,,,0.00,meteohub,2013-03-31 00:34:00,
2013-03-30 20:39:00,57.6,45.5,30.12,SW,225,0.0,0.0,64,0.00,,,0.00,meteohub,2013-03-31 00:39:00,
2013-03-30 20:44:00,57.4,45.3,30.12,East,90,2.0,2.0,64,0.00,,,0.00,meteohub,2013-03-31 00:44:00,
2013-03-30 20:49:00,57.4,45.3,30.12,SE,135,0.0,1.0,64,0.00,,,0.00,meteohub,2013-03-31 00:49:00,
2013-03-30 20:54:00,57.4,45.7,30.13,NE,45,1.0,2.0,65,0.00,,,0.00,meteohub,2013-03-31 00:54:00,
2013-03-30 20:59:00,57.4,45.7,30.13,NE,45,0.0,2.0,65,0.00,,,0.00,meteohub,2013-03-31 00:59:00,
2013-03-30 21:04:00,57.4,45.7,30.13,SW,225,0.0,1.0,65,0.00,,,0.00,meteohub,2013-03-31 01:04:00,
2013-03-30 21:09:00,57.4,45.7,30.12,NE,45,0.0,2.0,65,0.00,,,0.00,meteohub,2013-03-31 01:09:00,
2013-03-30 21:14:00,57.4,45.7,30.13,West,270,1.0,2.0,65,0.00,,,0.00,meteohub,2013-03-31 01:14:00,
2013-03-30 21:19:00,57.6,46.2,30.13,SW,225,1.0,2.0,66,0.00,,,0.00,meteohub,2013-03-31 01:19:00,
2013-03-30 21:24:00,57.4,46.0,30.13,NW,315,0.0,2.0,66,0.00,,,0.00,meteohub,2013-03-31 01:24:00,
2013-03-30 21:29:00,57.4,46.0,30.13,NW,315,0.0,2.0,66,0.00,,,0.00,meteohub,2013-03-31 01:29:00,
2013-03-30 21:34:00,57.4,46.0,30.13,NW,315,0.0,2.0,66,0.00,,,0.00,meteohub,2013-03-31 01:34:00,
2013-03-30 21:39:00,57.0,46.6,30.13,SW,225,1.0,2.0,68,0.00,,,0.00,meteohub,2013-03-31 01:39:00,
2013-03-30 21:44:00,57.0,46.6,30.13,SW,225,0.0,0.0,68,0.00,,,0.00,meteohub,2013-03-31 01:44:00,
2013-03-30 21:49:00,57.0,46.6,30.13,NE,45,0.0,2.0,68,0.00,,,0.00,meteohub,2013-03-31 01:49:00,
2013-03-30 21:54:00,56.8,46.4,30.13,NE,45,0.0,2.0,68,0.00,,,0.00,meteohub,2013-03-31 01:54:00,
2013-03-30 21:59:00,56.8,46.8,30.13,SW,225,1.0,2.0,69,0.00,,,0.00,meteohub,2013-03-31 01:59:00,
2013-03-30 22:05:00,56.8,46.8,30.13,SW,225,1.0,2.0,69,0.00,,,0.00,meteohub,2013-03-31 02:05:00,
2013-03-30 22:10:00,56.5,46.4,30.13,East,90,0.0,2.0,69,0.00,,,0.00,meteohub,2013-03-31 02:10:00,
2013-03-30 22:15:00,56.3,46.6,30.14,NW,315,1.0,2.0,70,0.00,,,0.00,meteohub,2013-03-31 02:15:00,
2013-03-30 22:20:00,56.3,46.6,30.14,SW,225,0.0,1.0,70,0.00,,,0.00,meteohub,2013-03-31 02:20:00,
2013-03-30 22:25:00,56.3,46.9,30.14,West,270,0.0,1.0,71,0.00,,,0.00,meteohub,2013-03-31 02:25:00,
2013-03-30 22:30:00,56.3,46.9,30.14,East,90,0.0,1.0,71,0.00,,,0.00,meteohub,2013-03-31 02:30:00,
2013-03-30 22:35:00,56.3,46.9,30.14,SW,225,0.0,2.0,71,0.00,,,0.00,meteohub,2013-03-31 02:35:00,
2013-03-30 22:40:00,56.1,47.3,30.13,West,270,2.0,2.0,72,0.00,,,0.00,meteohub,2013-03-31 02:40:00,
2013-03-30 22:45:00,56.3,47.8,30.13,SW,225,1.0,4.0,73,0.00,,,0.00,meteohub,2013-03-31 02:45:00,
2013-03-30 22:50:00,56.3,47.5,30.13,SW,225,0.0,4.0,72,0.00,,,0.00,meteohub,2013-03-31 02:50:00,
2013-03-30 22:55:00,56.3,47.5,30.14,SW,225,0.0,4.0,72,0.00,,,0.00,meteohub,2013-03-31 02:55:00,
2013-03-30 23:00:00,56.3,47.5,30.13,SW,225,0.0,1.0,72,0.00,,,0.00,meteohub,2013-03-31 03:00:00,
2013-03-30 23:05:00,56.3,47.8,30.13,NW,315,1.0,2.0,73,0.00,,,0.00,meteohub,2013-03-31 03:05:00,
2013-03-30 23:10:00,56.3,47.8,30.12,East,90,2.0,3.0,73,0.00,,,0.00,meteohub,2013-03-31 03:10:00,
2013-03-30 23:15:00,56.3,48.2,30.13,SW,225,1.0,3.0,74,0.00,,,0.00,meteohub,2013-03-31 03:15:00,
2013-03-30 23:20:00,56.1,48.0,30.13,SW,225,0.0,3.0,74,0.00,,,0.00,meteohub,2013-03-31 03:20:00,
2013-03-30 23:26:00,56.1,48.4,30.13,East,90,1.0,3.0,75,0.00,,,0.00,meteohub,2013-03-31 03:26:00,
2013-03-30 23:31:00,56.1,48.4,30.13,East,90,2.0,3.0,75,0.00,,,0.00,meteohub,2013-03-31 03:31:00,
2013-03-30 23:36:00,55.9,48.2,30.14,West,270,2.0,3.0,75,0.00,,,0.00,meteohub,2013-03-31 03:36:00,
2013-03-30 23:41:00,55.9,48.2,30.13,SW,225,2.0,3.0,75,0.00,,,0.00,meteohub,2013-03-31 03:41:00,
2013-03-30 23:47:00,55.8,48.0,30.13,NW,315,1.0,3.0,75,0.00,,,0.00,meteohub,2013-03-31 03:47:00,
2013-03-30 23:52:00,55.6,47.8,30.13,NE,45,1.0,3.0,75,0.00,,,0.00,meteohub,2013-03-31 03:52:00,
2013-03-30 23:58:00,55.4,47.7,30.13,North,0,2.0,3.0,75,0.00,,,0.00,meteohub,2013-03-31 03:58:00,